Погода в Хордогое

Россия / Республика Саха (Якутия)     62°36′20″N   115°40′45″E
темп.,
°C
ветер,
м/с
пор.,
м/с
влажн.,
%
обл.,
%
осадки,
мм/ч
давл.,
гПа
погр.,
м
1 марта, пн
пн100:00−33зюз22960 0.0 103219
03:00−34зюз22960 0.0 103219
06:00−36зюз12970 0.0 103219
09:00−36зюз22960 0.0 103219
12:00−29зюз25920 0.0 1030359
15:00−25зюз238539 0.0 1029730
18:00−28зюз1292100 0.0 102919
21:00−33зюз119787 0.0 102819
2 марта, вт
вт200:00−36з001000 0.0 102819
03:00−37ссз001002 0.0 102719
06:00−38св0110053 0.0 102719
09:00−38ссв1110045 0.0 102619
12:00−30св129158 0.0 1025287
15:00−27св238978 0.0 1024477
18:00−29ссв2395100 0.0 102447
21:00−35св229963 0.0 102519
3 марта, ср
ср300:00−36ссв229970 0.0 102619
03:00−38с229979 0.0 102619
06:00−39с229986 0.0 102718
09:00−40ссз129886 0.0 102818
12:00−33ссз239089 0.0 1027302
15:00−29сз238694 0.0 1027463
18:00−31сз129392 0.0 102819
21:00−36зсз129646 0.0 102919
4 марта, чт
чт400:00−38з22930 0.0 103020
03:00−39з23930 0.0 103124
06:00−39з379428 0.0 1031132
09:00−36з498949 0.0 1032296
12:00−32з498991 0.0 1032413
15:00−28з5108584 0.0 1031554
18:00−28з5118456 0.0 1032562
21:00−31з4138745 0.0 1034416
5 марта, пт
пт500:00−33з311910 0.0 1035320
03:00−33з310930 0.0 1036249
06:00−34з37940 0.0 1036137
09:00−34зюз39940 0.0 1037201
12:00−27з37890 0.0 1035437
15:00−23зюз36850 0.0 1034591
18:00−23зюз249057 0.0 103386
21:00−28зюз229331 0.0 103319